Weather History for KGTF - August, 2013

Change the Weather History Date:

Saturday, August 3, 2013

  Actual Average Record
Temperature  
Mean Temperature 60 °F 69 °F  
Max Temperature 74 °F 86 °F 100 °F (1961)
Min Temperature 46 °F 53 °F 40 °F (2002)
Degree Days  
Heating Degree Days 5 1  
Month to date heating degree days 8 3  
Since 1 June heating degree days 196 244  
Since 1 July heating degree days 24 53  
Cooling Degree Days 0 5  
Month to date cooling degree days 0 15  
Year to date cooling degree days 204 178  
Since 1 June cooling degree days 201 171  
Growing Degree Days 9 (Base 50)    
Moisture  
Dew Point 50 °F    
Average Humidity 72    
Maximum Humidity 100    
Minimum Humidity 44    
Precipitation  
Precipitation 0.07 in 0.04 in 0.24 in (1919)
Month to date precipitation 0.80 0.12  
Year to date precipitation 8.61 9.88  
Snow  
Snow 0.00 in 0.00 in 0.00 in (2002)
Month to date snowfall 0.0 0.0  
Since 1 June snowfall 0.0 0.3  
Since 1 July snowfall 0.0 0.0  
Snow Depth 0.00 in    
Sea Level Pressure  
Sea Level Pressure 30.11 in    
Wind  
Wind Speed 6 mph (NNW)    
Max Wind Speed 15 mph    
Max Gust Speed 18 mph    
Visibility 6 miles    
Events Fog , Rain    
T = Trace of Precipitation, MM = Missing Value Source: NWS Daily Summary

Daily Weather History Graph

Daily Weather History Graph

Search for Another Location

Airport or City:

Trip Planner

Search our weather history database for the weather conditions in past years. The results will help you decide how hot, cold, wet, or windy it might be!

Date:

Astronomy

Aug. 03, 2013 Rise Set
Actual Time 6:06 AM MDT 8:56 PM MDT
Civil Twilight 5:30 AM MDT 9:31 PM MDT
Nautical Twilight 4:45 AM MDT 10:16 PM MDT
Astronomical Twilight 3:51 AM MDT 11:10 PM MDT
Moon 3:15 AM MDT (8/3) 6:43 PM MDT (8/3)
Length of Visible Light 16h 00m
Length of Day
14h 49m
Waning Crescent, 9% of the Moon is Illuminated
Aug 3
Waning Crescent
Aug 6
New
Aug 14
First Quarter
Aug 20
Full
Aug 28
Last Quarter

Hourly Weather History & Observations

Time (MDT) Temp. Windchill Dew Point Humidity Pressure Visibility Wind Dir Wind Speed Gust Speed Precip Events Conditions
12:53 AM 55.0 °F - 52.0 °F 89% 30.09 in 10.0 mi East 3.5 mph - N/A   Clear
1:53 AM 52.0 °F - 51.1 °F 97% 30.08 in 10.0 mi Calm Calm - N/A   Clear
2:53 AM 48.9 °F - 48.9 °F 100% 30.09 in 10.0 mi NNW 5.8 mph - N/A   Clear
3:53 AM 51.1 °F - 50.0 °F 96% 30.09 in 9.0 mi Calm Calm - N/A   Clear
4:53 AM 46.9 °F - 46.9 °F 100% 30.11 in 4.0 mi SW 3.5 mph - N/A   Clear
5:13 AM 48.2 °F - 48.2 °F 100% 30.13 in 1.5 mi WSW 3.5 mph - N/A   Clear
5:16 AM 48.2 °F - 48.2 °F 100% 30.13 in 0.8 mi SW 3.5 mph - N/A   Clear
5:31 AM 46.4 °F 45.2 °F 46.4 °F 100% 30.14 in 0.2 mi SW 3.5 mph - N/A Fog Fog
5:51 AM 46.4 °F 43.5 °F 46.4 °F 100% 30.14 in 0.2 mi West 5.8 mph - N/A Fog Fog
5:53 AM 46.9 °F - 46.9 °F 100% 30.12 in 0.2 mi West 5.8 mph - N/A Fog Fog
5:59 AM 48.2 °F - 48.2 °F 100% 30.14 in 1.0 mi WNW 4.6 mph - N/A   Mist
6:02 AM 48.2 °F - 48.2 °F 100% 30.14 in 0.2 mi WNW 4.6 mph - N/A Fog Fog
6:11 AM 48.2 °F - 48.2 °F 100% 30.14 in 0.2 mi WNW 4.6 mph - N/A Fog Fog
6:53 AM 48.0 °F - 48.0 °F 100% 30.12 in 0.2 mi West 4.6 mph - N/A Fog Fog
7:13 AM 50.0 °F - 50.0 °F 100% 30.16 in 0.5 mi WSW 3.5 mph - N/A Fog Fog
7:23 AM 51.8 °F - 51.8 °F 100% 30.16 in 1.8 mi WSW 3.5 mph - N/A   Clear
7:25 AM 51.8 °F - 51.8 °F 100% 30.16 in 5.0 mi WSW 3.5 mph - N/A   Clear
7:53 AM 53.1 °F - 53.1 °F 100% 30.12 in 10.0 mi SW 4.6 mph - N/A   Clear
8:53 AM 55.0 °F - 53.1 °F 93% 30.14 in 10.0 mi Calm Calm - N/A   Clear
9:53 AM 61.0 °F - 52.0 °F 72% 30.13 in 10.0 mi Calm Calm - N/A   Clear
10:53 AM 64.0 °F - 51.1 °F 63% 30.11 in 10.0 mi Variable 6.9 mph - N/A   Mostly Cloudy
11:53 AM 63.0 °F - 48.0 °F 58% 30.11 in 10.0 mi NE 8.1 mph - N/A   Overcast
12:53 PM 59.0 °F - 53.1 °F 81% 30.14 in 7.0 mi NNE 4.6 mph - 0.02 in Rain Light Rain
1:53 PM 61.0 °F - 55.0 °F 81% 30.11 in 10.0 mi East 15.0 mph - 0.05 in   Overcast
2:53 PM 69.1 °F - 51.1 °F 53% 30.10 in 10.0 mi NE 8.1 mph - N/A   Partly Cloudy
3:53 PM 70.0 °F - 48.0 °F 46% 30.09 in 10.0 mi Variable 3.5 mph - N/A   Clear
4:53 PM 72.0 °F - 48.0 °F 43% 30.08 in 10.0 mi ENE 8.1 mph - N/A   Partly Cloudy
5:53 PM 71.1 °F - 48.0 °F 44% 30.08 in 10.0 mi ENE 6.9 mph - N/A   Scattered Clouds
6:53 PM 69.1 °F - 48.0 °F 47% 30.06 in 10.0 mi ENE 9.2 mph - N/A   Clear
7:53 PM 69.1 °F - 46.9 °F 45% 30.05 in 10.0 mi ENE 8.1 mph - N/A   Clear
8:53 PM 64.9 °F - 51.1 °F 61% 30.06 in 10.0 mi ENE 9.2 mph - N/A   Clear
9:53 PM 61.0 °F - 52.0 °F 72% 30.07 in 10.0 mi East 6.9 mph - N/A   Clear
10:53 PM 59.0 °F - 52.0 °F 78% 30.08 in 10.0 mi East 5.8 mph - N/A   Clear
11:53 PM 57.9 °F - 52.0 °F 81% 30.08 in 10.0 mi ENE 4.6 mph - N/A   Clear